Wind_Speed
8 10 11 13 15 17 18 19 21 22 22 22 21 21 22 23 24 27 29 30 33 33 35 36 37 36 37 38 38 38 39 39 45 44 41 41 40 33 30 29 29 28 30
6 8 10 12 15 17 18 19 21 22 22 21 21 21 21 22 22 24 27 29 30 31 32 33 35 34 36 37 38 39 40 40 42 44 40 40 42 38 33 33 32 30 30
5 8 12 17 20 21 22 22 22 23 23 22 22 22 22 22 23 24 26 27 29 30 30 30 31 33 35 35 36 37 38 38 40 42 42 38 40 41 37 34 34 33 31
7 11 16 21 24 24 24 24 24 24 24 24 24 23 23 24 25 26 27 27 28 29 28 30 31 32 32 31 33 34 35 36 36 39 39 38 36 39 39 36 37 34 33
9 13 19 24 27 28 26 24 24 24 23 23 25 25 25 27 28 28 28 28 28 29 30 31 31 31 30 30 32 33 33 35 36 38 39 37 37 35 36 32 34 33 33
13 16 19 26 31 28 27 26 24 23 22 23 24 26 28 30 30 31 31 31 30 31 32 32 33 31 30 29 30 31 32 33 35 35 36 37 37 33 30 28 26 32 32
17 19 24 28 31 28 26 25 23 22 22 22 23 26 28 30 32 33 32 34 33 32 32 32 33 31 28 27 25 28 30 32 36 34 36 37 36 34 28 27 24 25 29
19 23 30 31 29 28 26 24 22 23 24 25 27 29 31 31 30 30 30 32 35 34 32 30 30 30 27 25 26 29 29 29 31 36 43 45 43 39 35 30 27 25 26
20 29 32 30 27 24 23 24 24 25 27 28 29 29 30 28 27 29 31 34 35 34 31 28 26 26 26 26 26 29 30 31 30 30 34 37 39 39 37 34 34 29 32
25 32 30 26 25 26 27 27 26 25 24 25 28 29 30 31 30 31 31 32 32 29 26 24 23 24 23 21 22 28 33 37 35 37 35 31 30 33 32 38 34 30 32
30 29 24 24 26 27 26 25 26 28 29 29 29 28 27 27 28 27 27 29 26 24 22 22 20 19 19 22 26 28 32 30 26 27 30 29 27 28 31 31 35 39 31
28 25 24 24 24 27 27 26 27 29 31 31 30 29 27 26 25 23 21 20 19 20 20 19 19 19 20 25 28 31 28 26 28 29 31 33 31 31 26 24 29 33 35
23 22 22 24 24 24 25 25 26 27 28 29 30 29 27 23 21 19 16 15 14 16 18 19 19 21 24 26 27 26 24 26 29 31 33 34 32 30 24 24 25 25 26
22 23 23 22 22 20 21 23 25 27 28 27 27 27 24 21 19 17 15 16 16 16 17 18 21 26 28 27 26 25 25 24 27 31 33 33 30 27 25 24 23 25 26
24 22 20 20 20 21 21 23 25 24 27 26 24 23 22 20 18 17 17 18 20 21 24 25 27 26 26 23 21 20 19 19 20 23 26 29 30 28 25 23 24 25 28
21 19 19 20 21 23 25 24 23 26 25 23 22 21 19 19 19 19 20 22 25 26 24 23 22 22 22 19 19 21 21 21 21 20 21 22 25 26 25 24 25 25 28
18 19 20 22 23 25 26 27 28 22 21 20 18 18 18 19 20 22 25 25 24 20 18 19 19 19 19 17 17 19 21 21 21 20 21 21 21 22 22 25 25 25 28
20 21 23 24 25 25 25 25 23 21 18 16 16 17 18 21 24 25 24 20 18 18 18 17 16 15 16 18 19 20 21 22 22 22 20 20 19 20 23 24 25 26 25
22 22 22 22 21 21 21 20 20 18 17 17 17 18 20 22 23 23 21 18 18 16 13 14 16 16 18 19 20 21 21 22 22 21 21 20 19 17 21 23 24 25 24
19 18 18 18 18 18 18 17 17 16 16 17 19 20 22 21 21 20 17 14 11 13 13 15 16 18 19 20 21 21 22 22 22 21 22 20 18 19 18 21 24 25 26
15 15 16 16 16 14 14 14 15 16 17 18 20 21 23 22 21 18 17 15 14 13 16 18 18 20 21 22 21 21 23 22 20 21 20 22 20 18 19 18 21 22 23
14 14 15 15 14 14 14 14 16 16 18 20 20 21 21 20 20 18 18 14 14 14 16 18 19 21 22 22 21 22 24 24 22 21 19 18 20 21 17 19 20 21 22
12 13 14 14 14 13 14 14 15 18 19 22 22 20 20 20 20 18 18 15 16 17 17 18 20 22 22 23 23 22 22 23 23 21 22 23 23 22 20 17 20 21 23
13 14 14 13 13 14 15 15 18 20 21 22 21 20 21 22 18 18 18 16 17 18 19 21 21 23 22 23 24 22 22 21 20 20 22 23 24 26 21 21 17 21 21
14 14 13 13 14 15 17 18 19 21 22 21 21 22 22 21 18 18 19 17 18 20 20 22 23 22 22 23 23 23 22 21 21 23 22 21 20 21 22 20 19 19 21
14 14 14 15 17 19 21 21 22 21 22 21 22 22 22 21 19 19 20 18 19 21 22 23 24 22 22 22 22 23 24 22 22 20 20 20 22 20 20 18 18 17 18
Wind_Direction
326 330 328 321 314 306 302 299 296 292 292 289 287 283 280 277 273 271 272 271 269 268 267 266 267 268 267 266 265 264 263 264 264 274 276 281 280 280 281 281 278 273 274
350 357 351 338 324 314 305 299 294 293 291 287 284 284 285 284 280 277 276 274 274 273 272 270 271 270 268 267 266 266 267 268 268 270 274 275 279 280 279 277 276 273 270
353 351 343 336 325 315 308 303 299 295 292 285 284 286 287 288 286 282 279 277 276 276 276 275 273 269 267 268 269 270 271 270 269 269 272 273 274 279 279 275 276 276 270
333 337 337 335 331 323 311 302 300 299 296 289 288 289 291 291 288 287 284 282 280 279 277 273 271 268 269 270 270 268 267 267 267 268 270 271 271 274 276 276 278 280 280
320 328 332 335 332 325 319 310 303 301 299 293 290 291 291 290 290 291 289 286 280 278 277 274 271 271 273 271 270 273 274 274 273 271 270 271 270 268 271 278 280 280 276
306 313 321 328 327 322 317 313 310 306 303 300 298 295 292 292 293 292 292 290 287 282 278 276 274 273 274 275 276 278 277 272 270 270 272 270 273 273 272 275 275 274 274
307 318 324 320 319 319 314 312 312 311 310 311 310 306 303 299 296 294 293 291 288 285 283 279 277 276 276 279 280 277 273 268 272 276 274 271 273 276 275 271 266 271 273
310 318 322 318 317 317 315 312 309 307 308 309 307 306 303 302 299 297 295 291 290 289 285 280 278 279 278 274 272 269 266 264 264 258 264 272 273 276 272 270 264 265 262
314 317 321 319 318 318 316 313 313 310 306 305 305 304 304 302 300 299 297 293 290 290 291 289 284 280 279 281 281 280 276 272 267 266 270 269 267 268 269 267 262 260 259
312 317 318 315 315 315 315 315 313 312 313 312 311 308 305 303 299 295 294 294 293 293 289 285 284 282 280 283 282 280 278 283 285 284 281 280 267 263 256 260 263 259 255
310 312 314 312 314 315 315 316 314 313 313 315 314 315 313 307 304 301 299 297 296 291 288 289 287 279 274 283 284 282 282 290 295 294 285 286 278 269 259 248 253 255 254
308 313 311 312 313 311 312 314 315 315 316 317 317 318 315 313 313 313 310 303 297 293 297 297 292 284 279 287 295 299 292 285 281 280 281 282 279 277 278 265 253 250 249
310 310 308 309 310 310 312 314 315 316 317 319 319 317 317 321 321 318 313 304 298 296 298 299 297 292 291 293 297 291 284 277 280 278 279 280 282 285 279 273 259 256 250
304 304 307 309 310 310 311 314 317 319 319 318 317 317 320 321 321 323 322 316 309 304 301 294 290 292 297 299 297 294 286 278 272 273 276 279 282 281 282 276 260 260 244
299 302 305 307 309 310 312 315 315 317 315 315 315 315 316 319 321 322 320 316 313 308 305 303 301 301 302 305 304 303 300 294 287 278 272 275 277 278 276 275 267 257 244
297 302 306 308 309 310 311 313 314 315 314 312 312 313 313 314 316 317 313 312 310 306 306 307 306 308 308 308 307 306 303 301 298 293 282 275 275 276 276 273 267 256 252
300 303 305 306 307 307 308 311 314 314 310 307 305 304 308 309 309 309 309 311 310 309 310 308 308 310 311 314 314 309 306 306 301 292 288 281 276 273 271 271 265 258 253
298 301 303 303 303 306 311 313 312 309 306 301 301 303 303 306 309 311 310 313 309 307 310 310 317 324 325 319 317 314 310 309 303 297 290 283 280 273 271 263 266 258 254
298 300 300 303 307 310 311 310 306 304 304 305 302 302 305 307 308 308 308 308 309 315 321 323 325 321 320 315 313 309 306 307 306 302 293 290 283 276 268 265 264 265 260
300 303 305 307 309 309 308 305 301 301 303 303 304 306 305 304 305 310 310 313 317 316 319 322 324 319 316 316 315 311 304 303 305 302 300 292 288 280 276 266 263 262 259
304 307 307 310 310 309 305 301 299 302 303 303 306 307 304 305 312 315 312 312 316 317 319 324 320 317 316 318 313 311 308 295 304 302 297 296 286 291 282 278 268 262 259
309 312 312 313 310 306 303 304 301 302 303 302 304 303 300 304 309 308 309 309 315 316 319 320 318 316 317 320 314 309 308 306 301 287 293 299 291 285 288 285 277 264 256
315 317 317 315 309 304 300 298 299 302 302 302 303 302 299 302 306 305 305 311 315 318 322 321 317 318 319 320 317 312 307 303 300 291 287 292 283 280 279 282 282 271 257
319 320 316 311 310 307 304 301 303 304 305 303 302 300 299 301 301 305 307 312 313 316 323 322 321 321 320 318 316 311 310 307 303 298 297 282 278 277 275 273 280 272 265
320 316 315 311 308 304 302 303 304 307 307 305 303 298 298 301 300 307 307 313 315 315 321 322 319 321 322 318 315 315 312 311 301 298 293 282 284 283 264 275 273 270 263
305 306 307 306 306 305 304 304 306 307 307 305 302 301 299 300 300 303 305 309 311 314 318 321 322 325 324 322 319 319 316 313 308 304 292 287 274 269 267 272 262 269 259
Height
1542 1540 1539 1536 1534 1532 1530 1528 1526 1524 1523 1521 1518 1515 1513 1511 1510 1509 1507 1507 1505 1506 1505 1504 1504 1506 1505 1503 1503 1503 1501 1501 1496 1497 1498 1496 1495 1497 1497 1497 1495 1494 1493
1539 1538 1536 1534 1531 1528 1525 1522 1520 1518 1516 1514 1511 1509 1507 1505 1504 1502 1501 1500 1498 1496 1496 1495 1496 1497 1495 1495 1493 1492 1492 1492 1490 1486 1490 1488 1485 1487 1489 1487 1487 1486 1485
1536 1535 1533 1530 1527 1524 1520 1517 1514 1512 1510 1508 1506 1504 1502 1501 1499 1497 1495 1495 1493 1491 1491 1491 1488 1485 1482 1483 1484 1484 1484 1483 1480 1478 1476 1480 1477 1475 1477 1478 1477 1478 1477
1534 1532 1530 1527 1523 1519 1515 1511 1509 1507 1505 1503 1501 1500 1498 1496 1493 1491 1489 1487 1486 1485 1482 1479 1477 1476 1475 1476 1474 1471 1470 1468 1469 1467 1466 1467 1469 1467 1465 1468 1466 1467 1469
1530 1528 1525 1522 1518 1515 1510 1507 1504 1501 1499 1497 1496 1494 1491 1488 1486 1484 1481 1479 1477 1475 1473 1471 1468 1468 1467 1466 1464 1465 1466 1464 1463 1460 1457 1457 1456 1458 1456 1456 1455 1456 1456
1525 1523 1521 1517 1513 1509 1505 1502 1499 1496 1493 1491 1489 1487 1484 1482 1480 1477 1475 1473 1470 1468 1465 1463 1461 1459 1459 1459 1458 1456 1456 1455 1452 1451 1450 1447 1446 1447 1447 1447 1446 1449 1445
1520 1518 1515 1511 1507 1503 1499 1496 1493 1490 1488 1486 1484 1481 1478 1476 1474 1470 1467 1462 1461 1459 1458 1456 1454 1453 1453 1452 1452 1449 1448 1446 1443 1443 1441 1437 1438 1439 1439 1439 1437 1439 1439
1514 1512 1509 1504 1501 1497 1494 1491 1488 1485 1483 1481 1478 1475 1470 1468 1465 1462 1459 1454 1450 1449 1447 1445 1444 1444 1444 1443 1441 1439 1437 1436 1435 1432 1428 1428 1428 1428 1428 1429 1429 1430 1430
1509 1506 1502 1498 1494 1489 1487 1485 1482 1479 1476 1473 1470 1467 1463 1461 1459 1455 1451 1446 1442 1440 1440 1440 1438 1436 1436 1435 1433 1431 1430 1426 1427 1425 1422 1420 1419 1419 1419 1420 1418 1419 1421
1502 1499 1496 1492 1488 1486 1481 1478 1475 1471 1468 1465 1463 1460 1456 1451 1449 1445 1441 1437 1434 1433 1431 1428 1429 1427 1427 1427 1425 1424 1421 1420 1416 1414 1412 1410 1410 1410 1412 1408 1410 1410 1413
1496 1492 1489 1486 1483 1479 1476 1472 1469 1466 1462 1459 1455 1452 1448 1442 1439 1436 1434 1430 1427 1425 1424 1424 1423 1422 1420 1420 1418 1415 1412 1411 1409 1404 1402 1401 1401 1401 1401 1402 1401 1402 1405
1489 1485 1483 1480 1476 1473 1470 1466 1463 1459 1454 1451 1446 1444 1441 1436 1432 1429 1426 1423 1420 1420 1419 1419 1416 1416 1414 1413 1409 1407 1405 1403 1401 1398 1395 1393 1392 1392 1392 1392 1393 1394 1397
1481 1479 1476 1474 1471 1468 1464 1460 1457 1453 1447 1444 1441 1436 1433 1430 1428 1425 1421 1420 1417 1414 1413 1412 1411 1409 1407 1403 1401 1400 1397 1396 1393 1390 1388 1386 1386 1385 1385 1386 1386 1386 1388
1473 1472 1470 1467 1465 1462 1458 1453 1449 1446 1442 1438 1435 1433 1430 1426 1422 1420 1417 1417 1414 1411 1408 1406 1404 1403 1400 1396 1392 1390 1388 1387 1385 1383 1381 1379 1379 1379 1378 1379 1379 1380 1381
1466 1464 1462 1459 1457 1455 1452 1448 1444 1441 1436 1433 1430 1428 1425 1423 1419 1416 1412 1410 1410 1409 1403 1398 1396 1394 1391 1388 1386 1383 1381 1379 1377 1375 1373 1372 1370 1371 1372 1372 1372 1373 1373
1460 1458 1455 1453 1452 1449 1445 1443 1439 1433 1431 1428 1426 1423 1420 1415 1414 1411 1409 1407 1403 1400 1399 1394 1390 1387 1385 1382 1380 1377 1375 1373 1370 1368 1366 1365 1364 1363 1364 1365 1365 1366 1367
1453 1452 1450 1447 1445 1442 1438 1434 1431 1430 1426 1423 1420 1419 1416 1414 1410 1408 1404 1400 1397 1393 1390 1389 1385 1381 1380 1377 1375 1372 1369 1367 1365 1362 1361 1359 1358 1357 1358 1357 1358 1359 1360
1448 1445 1443 1441 1439 1436 1433 1430 1427 1425 1423 1420 1417 1415 1412 1409 1407 1403 1399 1394 1392 1390 1385 1383 1380 1377 1376 1373 1370 1367 1364 1362 1360 1357 1355 1354 1352 1351 1350 1351 1352 1352 1353
1442 1440 1437 1435 1432 1430 1427 1425 1424 1421 1418 1415 1412 1409 1405 1402 1400 1399 1395 1389 1387 1385 1382 1379 1377 1374 1372 1369 1366 1363 1360 1357 1355 1352 1350 1349 1347 1345 1344 1345 1346 1347 1348
1435 1433 1430 1428 1425 1423 1421 1419 1419 1415 1413 1410 1408 1406 1402 1396 1392 1391 1391 1384 1379 1381 1379 1375 1373 1371 1368 1364 1360 1357 1354 1352 1350 1347 1345 1343 1342 1340 1339 1338 1339 1340 1341
1428 1426 1425 1422 1419 1417 1415 1413 1413 1410 1408 1405 1405 1401 1401 1395 1390 1386 1386 1383 1377 1375 1374 1371 1368 1366 1363 1359 1355 1352 1349 1346 1344 1342 1340 1338 1336 1334 1333 1333 1332 1333 1335
1421 1419 1417 1416 1415 1413 1412 1408 1409 1405 1404 1403 1396 1396 1394 1392 1387 1382 1381 1378 1375 1371 1370 1367 1365 1361 1358 1353 1350 1346 1343 1340 1338 1336 1334 1333 1331 1329 1327 1327 1327 1327 1329
1415 1414 1413 1411 1409 1407 1406 1404 1404 1400 1399 1399 1394 1391 1389 1383 1382 1379 1377 1373 1371 1368 1365 1362 1360 1356 1352 1348 1344 1341 1338 1334 1332 1330 1328 1326 1324 1323 1322 1321 1321 1322 1323
1410 1407 1408 1407 1405 1406 1404 1401 1399 1395 1393 1392 1388 1386 1385 1379 1375 1373 1372 1368 1367 1364 1360 1357 1355 1351 1347 1343 1338 1335 1331 1328 1325 1323 1321 1319 1317 1316 1316 1315 1315 1316 1317
1405 1406 1402 1402 1401 1399 1398 1395 1393 1391 1388 1386 1383 1382 1380 1374 1372 1367 1366 1364 1362 1361 1355 1352 1349 1345 1341 1336 1332 1329 1325 1322 1319 1316 1314 1312 1311 1309 1309 1309 1310 1311 1312
1402 1400 1398 1397 1397 1395 1395 1392 1391 1385 1383 1380 1379 1376 1373 1369 1367 1362 1361 1359 1357 1355 1351 1347 1343 1339 1334 1330 1326 1323 1319 1315 1312 1309 1307 1305 1304 1303 1303 1303 1305 1305 1307